NOAA NWS Hourly Roundups by Site

Regional Weather Roundup for San Diego, CA

To Select Another Site Choose from List

Select Site:  

733
ASUS46 KSGX 231611
RWRSGX

SAN DIEGO HOURLY WEATHER ROUNDUP
NATIONAL WEATHER SERVICE SAN DIEGO CA
900 AM PDT MON SEP 23 2019

NOTE: "FAIR" INDICATES FEW OR NO CLOUDS BELOW 12,000 FEET WITH NO
SIGNIFICANT WEATHER AND/OR OBSTRUCTIONS TO VISIBILITY.

CAZ042-043-060-061-PZZ750-775-231700-

GREATER SAN DIEGO AREA

CITY           SKY/WX    TMP DP  RH WIND       PRES   REMARKS
SAN DIEGO AP   PTSUNNY   70  64  81 SW6       29.96R
NATIONAL CITY    N/A    N/A N/A N/A SW6       29.96R
CHULA VISTA      N/A     71  66  85 W3        29.86R
BROWN FIELD    SUNNY     70  63  78 CALM      29.96R
MIRAMAR MCAS   PTSUNNY   73  63  70 S3        29.95S
MONTGOMERY FLD CLOUDY    70  63  78 CALM      29.96S
GILLESPIE FLD  SUNNY     70  63  78 MISG      29.96

$$

NORTH SAN DIEGO COUNTY

CITY           SKY/WX    TMP DP  RH WIND       PRES   REMARKS
CAMP PENDLETON PTSUNNY   69  63  81 SW5       29.95R
OCEANSIDE AP   CLOUDY   N/A N/A N/A CALM      29.94R
OCEANSIDE HBR    N/A     68  66  92 CALM      29.97R
VISTA            N/A     66  60  80 CALM      29.92R
CARLSBAD       CLOUDY    70  63  78 E3        29.95R
DEL MAR          N/A     67  65  93 SW2       29.96R
LA JOLLA SCRIP   N/A     68  64  87 CALM      29.95R
FALLBROOK      CLOUDY    64  64 100 CALM      29.97R FOG
ESCONDIDO        N/A     72  64  75 CALM      29.93S
SAN MARCOS       N/A     68  65  90 CALM      29.98R
POWAY            N/A     70  64  80 CALM      29.95S

$$

EAST SAN DIEGO COUNTY

CITY           SKY/WX    TMP DP  RH WIND       PRES   REMARKS
RAMONA         SUNNY     71  60  68 CALM      29.98R
SANTEE LAKES     N/A     69  64  84 S1        29.92R
LA MESA          N/A     66  65  94 CALM      29.89R
JAMUL            N/A     71  66  82 CALM      29.93R
MT. LAGUNA OBS   N/A     64  44  48 S22       29.83R
CAMPO            N/A     74  50  42 CALM      29.98S

$$

ORANGE COUNTY AND THE LOS ANGELES BASIN

CITY           SKY/WX    TMP DP  RH WIND       PRES   REMARKS
JOHN WAYNE AP  CLOUDY    72  63  73 VRB5      29.95R
LAGUNA BEACH     N/A     71  66  83 S1        29.95R
LAKE FOREST FR   N/A     65  61  87 CALM      29.84R
HUNTINGTON BCH   N/A     69  66  90 S6        29.96R
LOS ALAMITOS   CLOUDY    70  61  71 S5        29.95R
FULLERTON      PTSUNNY   72  62  71 VRB3      29.95R
LONG BEACH     CLOUDY    72  62  71 VRB6      29.96R
L.A. AP        CLOUDY    69  62  78 W6        29.96R
L.A. DOWNTOWN  CLOUDY    72  64  76 CALM      29.96R

$$

THE INLAND EMPIRE

CITY           SKY/WX    TMP DP  RH WIND       PRES   REMARKS
CORONA         SUNNY     71  61  70 MISG        N/A
CHINO          SUNNY     73  58  59 CALM      29.97R
ONTARIO        SUNNY     73  57  57 CALM      29.96R
SAN BERNARDINO SUNNY     75  48  38 CALM      29.97R
RIVERSIDE AP   SUNNY     74  55  51 CALM      29.95S
MARCH ARB      SUNNY     73  54  51 CALM      29.98R
HORSETHIEF CYN   N/A     73  55  52 SW1       29.92R
PERRIS           N/A     72  58  62 CALM      30.01R
HEMET EAST       N/A     68  51  52 CALM      29.95R
FRENCH VALLEY  FAIR      70  57  64 CALM      29.98R
TEMECULA         N/A     65  60  82 CALM      29.95S

$$

SAN BERNARDINO AND RIVERSIDE COUNTY MOUNTAINS

CITY           SKY/WX    TMP DP  RH WIND       PRES   REMARKS
BIG BEAR AP    SUNNY     59  32  36 W9G17     30.19R
ANGELUS OAKS     N/A     58  40  51 CALM      29.83R

$$

SOUTHERN DESERT INCLUDING THE COACHELLA VALLEY

CITY           SKY/WX    TMP DP  RH WIND       PRES   REMARKS
PALM SPRINGS   SUNNY     84  54  35 CALM      29.90S
THOUSAND PALMS   N/A     81  58  44 W1        29.84S
PALM DESERT      N/A    N/A N/A N/A CALM      29.18S
THERMAL        SUNNY     83  59  44 NW3       29.85R
BORREGO AP     FAIR      86  46  25 CALM      29.88S
BLYTHE         MOSUNNY   87  73  62 S15       29.88S
IMPERIAL AP    SUNNY     84  55  36 VRB3      29.85S
EL CENTRO NAS  MOSUNNY   85  48  27 E5        29.87S
YUMA AZ        PTSUNNY   87  76  69 S17       29.88R HX  97
MEXICALI       SUNNY     86  75  70 SE7       29.87S HX  95

$$

UPPER DESERT

CITY           SKY/WX    TMP DP  RH WIND       PRES   REMARKS
VICTORVILLE AP SUNNY    N/A N/A N/A CALM      30.02R
HESPERIA         N/A     74  52  46 W10       29.88R
APPLE VALLEY     N/A     75  56  51 N9        29.94R
PALMDALE       SUNNY     70  50  49 E6        30.01R
LANCASTER      SUNNY     76  50  40 W12       30.00R
EDWARDS AFB    MOSUNNY   76  46  33 SW18G24   29.96S
DAGGETT        SUNNY     77  47  34 W15       29.97R
29 PALMS N     SUNNY     75  37  25 CALM      30.02S
NEEDLES        SUNNY     84  38  19 CALM      29.91R

$$

REGIONAL REPORTS

CITY           SKY/WX    TMP DP  RH WIND       PRES   REMARKS
SANTA BARBARA  CLOUDY    65  62  90 S7        29.95R
SANDBERG       SUNNY     66  52  60 S10       30.11R
LAS VEGAS NV   CLOUDY    79  38  22 SW7       29.95R
PHOENIX AZ     PTSUNNY   77  74  90 E15       29.96R
TIJUANA        MOSUNNY   70  63  78 NW3       29.99R
ENSENADA NW      N/A     70  32  24 CALM      29.91S

$$

OFFSHORE ISLANDS

CITY           SKY/WX    TMP DP  RH WIND       PRES   REMARKS
CATALINA ARPT  MOSUNNY   69  56  62 NW3       29.99R
SAN CLEMENTE I MOSUNNY   64  58  80 SW9       29.96S
SAN NICOLAS IS PTSUNNY   63  60  90 NW9       29.95R FOG

$$

MARINE AND OFFSHORE BUOY REPORTS

STATION/POSITION SKY/WX   TEMP    WIND        PRES    VSBY  SWELL
                          AIR SEA DIR/SP/G                  HT/PER/DIR
                          (F)     (DEG/KT/KT) (MB)    (MI)  (FT/S/D)
TANNER BANKS               62 65  300/ 12/ 16 1014.2R         5/290/ 8
S CLEMENTE BASIN           64 69  250/  6/  8 1014.4R         3/200/17
SAN NICOLAS IS.               65                N/A           3/200/17
SO. S. ROSA ISLA           61 62  320/ 14/ 19 1014.8R         5/310/ 8
W. S. BARBARA CH                                N/A
M. S. BARBARA CH           63 65  220/  8/ 10 1014.5
S. MONICA BASIN            65 71  120/  4/  6 1014.6R         3/250/17
S PEDRO CHANNEL               70                N/A           2/210/18
OCEANSIDE OFFSHR              72                N/A           2/190/17
TORREY PINES OTR              71                N/A           3/200/17
SAN DIEGO BAY                 72              1013.7
IMPERIAL BEACH                69                N/A           2/240/17
POINT LOMA SOUTH              72                N/A           3/200/17

$$




 

View Past Reports for San Diego, CA.

Products Courtesy of NOAA-NWS
NWS Information Parsing Script by Ken True at Saratoga Weather - Script by SE Lincoln Weather.